Flag for U.S.A. Weather past 2 weeks in Madison, Wisconsin, U.S.A.

Now
47 °F

Passing clouds.


Feels Like: 42 °F
Forecast: 33 / 67 °F
Wind: 10 mph from East

Location: Dane County Regional-Truax Field


UV Index: 5 (Moderate)

Visibility: 10 mi


Pressure: 30.34 "Hg

Humidity: 52%

Dew point: 30 °F

Location of MadisonLocation

Historic Weather in Madison

°F

Madison temperature yesterday

Maximum temperature yesterday: 55 °F (at 3:53 PM)
Minimum temperature yesterday: 36 °F (at 11:53 PM)
Average temperature yesterday: 46 °F

Past Weeks' High & Low Weather Summary

 TemperatureHumidityPressure
High67 °F (Apr 11, 4:53 PM)97% (Apr 4, 7:53 AM)30.41 "Hg (Apr 4, 7:53 AM)
Low19 °F (Apr 15, 4:53 AM)15% (Apr 10, 3:53 PM)29.48 "Hg (Apr 4, 6:53 AM)
Average44 °F62%29.93 "Hg
* Reported Apr 3 7:53 PM — Apr 18 7:53 PM, Madison, Weather by CustomWeather, © 2014

Note: Actual official high and low records may vary slightly from our data, if they occured in-between our weather recording intervals... More about our weather records

Advertising

Historic Weather Conditions — Data for Previous 24 hours

 ConditionsComfort  
Time TempWeatherWind HumidityBarometerVisibility
7:53 PM
Apr 18
46 °FPassing clouds.9 mph51%30.33 "Hg10 mi
6:53 PM52 °FPassing clouds.7 mph41%30.34 "Hg10 mi
5:53 PM55 °FPassing clouds.3 mph33%30.34 "Hg10 mi
4:53 PM55 °FScattered clouds.7 mph34%30.34 "Hg10 mi
3:53 PM54 °FScattered clouds.5 mph33%30.34 "Hg10 mi
2:53 PM53 °FPassing clouds.5 mph38%30.36 "Hg10 mi
1:53 PM52 °FPassing clouds.7 mph40%30.37 "Hg10 mi
12:53 PM49 °FPassing clouds.7 mph44%30.38 "Hg10 mi
11:53 AM46 °FPassing clouds.6 mph51%30.39 "Hg10 mi
10:53 AM44 °FPassing clouds.5 mph60%30.41 "Hg10 mi
9:53 AM42 °FPassing clouds.10 mph62%30.40 "Hg10 mi
8:53 AM39 °FPassing clouds.8 mph73%30.39 "Hg10 mi
7:53 AM35 °FSunny.3 mph85%30.39 "Hg9 mi
6:53 AM30 °FIce fog.5 mph92%30.36 "Hg6 mi
5:53 AM28 °FIce fog.5 mph96%30.34 "Hg6 mi
4:53 AM27 °FIce fog.No wind96%30.34 "Hg4 mi
3:53 AM30 °FIce fog.No wind92%30.32 "Hg5 mi
2:53 AM31 °FClear.5 mph92%30.32 "Hg8 mi
1:53 AM32 °FClear.3 mph88%30.31 "Hg10 mi
12:53 AM33 °FClear.3 mph88%30.32 "Hg10 mi
11:53 PM
Apr 17
36 °FClear.5 mph82%30.32 "Hg10 mi
10:53 PM37 °FPassing clouds.5 mph82%30.31 "Hg10 mi
9:53 PM39 °FPassing clouds.5 mph76%30.31 "Hg10 mi
Weather by CustomWeather, © 2014

See weather overview